Year,Month,Day,Hour,Minute,Value (Times are PST for barometer in hPa)
2011,11,24,00,00,1008.30
2011,11,24,00,01,1008.33
2011,11,24,00,02,1008.33
2011,11,24,00,03,1008.33
2011,11,24,00,04,1008.34
2011,11,24,00,05,1008.43
2011,11,24,00,06,1008.43
2011,11,24,00,07,1008.43
2011,11,24,00,08,1008.43
2011,11,24,00,09,1008.47
2011,11,24,00,10,1008.40
2011,11,24,00,11,1008.40
2011,11,24,00,12,1008.40
2011,11,24,00,13,1008.40
2011,11,24,00,14,1008.43
2011,11,24,00,15,1008.43
2011,11,24,00,16,1008.43
2011,11,24,00,17,1008.43
2011,11,24,00,18,1008.43
2011,11,24,00,19,1008.47
2011,11,24,00,20,1008.47
2011,11,24,00,21,1008.50
2011,11,24,00,22,1008.50
2011,11,24,00,23,1008.47
2011,11,24,00,24,1008.53
2011,11,24,00,25,1008.53
2011,11,24,00,26,1008.50
2011,11,24,00,27,1008.53
2011,11,24,00,28,1008.53
2011,11,24,00,29,1008.53
2011,11,24,00,30,1008.53
2011,11,24,00,31,1008.53
2011,11,24,00,32,1008.57
2011,11,24,00,33,1008.53
2011,11,24,00,34,1008.57
2011,11,24,00,35,1008.60
2011,11,24,00,36,1008.60
2011,11,24,00,37,1008.60
2011,11,24,00,38,1008.64
2011,11,24,00,39,1008.67
2011,11,24,00,40,1008.64
2011,11,24,00,41,1008.67
2011,11,24,00,42,1008.64
2011,11,24,00,43,1008.67
2011,11,24,00,44,1008.67
2011,11,24,00,45,1008.67
2011,11,24,00,46,1008.64
2011,11,24,00,47,1008.64
2011,11,24,00,48,1008.67
2011,11,24,00,49,1008.67
2011,11,24,00,50,1008.67
2011,11,24,00,51,1008.67
2011,11,24,00,52,1008.70
2011,11,24,00,53,1008.67
2011,11,24,00,54,1008.67
2011,11,24,00,55,1008.60
2011,11,24,00,56,1008.64
2011,11,24,00,57,1008.64
2011,11,24,00,58,1008.60
2011,11,24,00,59,1008.60
2011,11,24,01,00,1008.57
2011,11,24,01,01,1008.57
2011,11,24,01,02,1008.53
2011,11,24,01,03,1008.53
2011,11,24,01,04,1008.53
2011,11,24,01,05,1008.50
2011,11,24,01,06,1008.50
2011,11,24,01,07,1008.53
2011,11,24,01,08,1008.57
2011,11,24,01,09,1008.60
2011,11,24,01,10,1008.60
2011,11,24,01,11,1008.57
2011,11,24,01,12,1008.60
2011,11,24,01,13,1008.60
2011,11,24,01,14,1008.60
2011,11,24,01,15,1008.57
2011,11,24,01,16,1008.57
2011,11,24,01,17,1008.53
2011,11,24,01,18,1008.57
2011,11,24,01,19,1008.53
2011,11,24,01,20,1008.50
2011,11,24,01,21,1008.53
2011,11,24,01,22,1008.47
2011,11,24,01,23,1008.47
2011,11,24,01,24,1008.50
2011,11,24,01,25,1008.49
2011,11,24,01,26,1008.43
2011,11,24,01,27,1008.47
2011,11,24,01,28,1008.43
2011,11,24,01,29,1008.40
2011,11,24,01,30,1008.41
2011,11,24,01,31,1008.47
2011,11,24,01,32,1008.43
2011,11,24,01,33,1008.43
2011,11,24,01,34,1008.40
2011,11,24,01,35,1008.43
2011,11,24,01,36,1008.40
2011,11,24,01,37,1008.37
2011,11,24,01,38,1008.37
2011,11,24,01,39,1008.37
2011,11,24,01,40,1008.37
2011,11,24,01,41,1008.37
2011,11,24,01,42,1008.40
2011,11,24,01,43,1008.37
2011,11,24,01,44,1008.40
2011,11,24,01,45,1008.37
2011,11,24,01,46,1008.33
2011,11,24,01,47,1008.30
2011,11,24,01,48,1008.30
2011,11,24,01,49,1008.32
2011,11,24,01,50,1008.26
2011,11,24,01,51,1008.26
2011,11,24,01,52,1008.26
2011,11,24,01,53,1008.26
2011,11,24,01,54,1008.23
2011,11,24,01,55,1008.23
2011,11,24,01,56,1008.23
2011,11,24,01,57,1008.23
2011,11,24,01,58,1008.23
2011,11,24,01,59,1008.20
2011,11,24,02,00,1008.26
2011,11,24,02,01,1008.23
2011,11,24,02,02,1008.23
2011,11,24,02,03,1008.23
2011,11,24,02,04,1008.26
2011,11,24,02,05,1008.30
2011,11,24,02,06,1008.30
2011,11,24,02,07,1008.26
2011,11,24,02,08,1008.26
2011,11,24,02,09,1008.30
2011,11,24,02,10,1008.30
2011,11,24,02,11,1008.26
2011,11,24,02,12,1008.30
2011,11,24,02,13,1008.25
2011,11,24,02,14,1008.20
2011,11,24,02,15,1008.16
2011,11,24,02,16,1008.13
2011,11,24,02,17,1008.13
2011,11,24,02,18,1008.06
2011,11,24,02,19,1008.06
2011,11,24,02,20,1008.06
2011,11,24,02,21,1008.02
2011,11,24,02,22,1007.96
2011,11,24,02,23,1007.99
2011,11,24,02,24,1007.93
2011,11,24,02,25,1007.89
2011,11,24,02,26,1007.89
2011,11,24,02,27,1007.89
2011,11,24,02,28,1007.89
2011,11,24,02,29,1007.89
2011,11,24,02,30,1007.86
2011,11,24,02,31,1007.82
2011,11,24,02,32,1007.86
2011,11,24,02,33,1007.86
2011,11,24,02,34,1007.82
2011,11,24,02,35,1007.86
2011,11,24,02,36,1007.82
2011,11,24,02,37,1007.76
2011,11,24,02,38,1007.72
2011,11,24,02,39,1007.75
2011,11,24,02,40,1007.69
2011,11,24,02,41,1007.70
2011,11,24,02,42,1007.76
2011,11,24,02,43,1007.76
2011,11,24,02,44,1007.75
2011,11,24,02,45,1007.69
2011,11,24,02,46,1007.72
2011,11,24,02,47,1007.72
2011,11,24,02,48,1007.69
2011,11,24,02,49,1007.72
2011,11,24,02,50,1007.72
2011,11,24,02,51,1007.72
2011,11,24,02,52,1007.69
2011,11,24,02,53,1007.69
2011,11,24,02,54,1007.65
2011,11,24,02,55,1007.69
2011,11,24,02,56,1007.65
2011,11,24,02,57,1007.62
2011,11,24,02,58,1007.62
2011,11,24,02,59,1007.62
2011,11,24,03,00,1007.65
2011,11,24,03,01,1007.69
2011,11,24,03,02,1007.69
2011,11,24,03,03,1007.65
2011,11,24,03,04,1007.64
2011,11,24,03,05,1007.59
2011,11,24,03,06,1007.62
2011,11,24,03,07,1007.59
2011,11,24,03,08,1007.55
2011,11,24,03,09,1007.59
2011,11,24,03,10,1007.62
2011,11,24,03,11,1007.59
2011,11,24,03,12,1007.59
2011,11,24,03,13,1007.62
2011,11,24,03,14,1007.62
2011,11,24,03,15,1007.65
2011,11,24,03,16,1007.69
2011,11,24,03,17,1007.66
2011,11,24,03,18,1007.75
2011,11,24,03,19,1007.65
2011,11,24,03,20,1007.68
2011,11,24,03,21,1007.61
2011,11,24,03,22,1007.52
2011,11,24,03,23,1007.52
2011,11,24,03,24,1007.52
2011,11,24,03,25,1007.52
2011,11,24,03,26,1007.52
2011,11,24,03,27,1007.48
2011,11,24,03,28,1007.52
2011,11,24,03,29,1007.45
2011,11,24,03,30,1007.45
2011,11,24,03,31,1007.46
2011,11,24,03,32,1007.54
2011,11,24,03,33,1007.48
2011,11,24,03,34,1007.45
2011,11,24,03,35,1007.45
2011,11,24,03,36,1007.42
2011,11,24,03,37,1007.45
2011,11,24,03,38,1007.42
2011,11,24,03,39,1007.42
2011,11,24,03,40,1007.42
2011,11,24,03,41,1007.45
2011,11,24,03,42,1007.48
2011,11,24,03,43,1007.48
2011,11,24,03,44,1007.45
2011,11,24,03,45,1007.52
2011,11,24,03,46,1007.48
2011,11,24,03,47,1007.45
2011,11,24,03,48,1007.48
2011,11,24,03,49,1007.45
2011,11,24,03,50,1007.52
2011,11,24,03,51,1007.52
2011,11,24,03,52,1007.52
2011,11,24,03,53,1007.52
2011,11,24,03,54,1007.48
2011,11,24,03,55,1007.45
2011,11,24,03,56,1007.45
2011,11,24,03,57,1007.42
2011,11,24,03,58,1007.42
2011,11,24,03,59,1007.48
2011,11,24,04,00,1007.45
2011,11,24,04,01,1007.48
2011,11,24,04,02,1007.48
2011,11,24,04,03,1007.48
2011,11,24,04,04,1007.48
2011,11,24,04,05,1007.48
2011,11,24,04,06,1007.48
2011,11,24,04,07,1007.52
2011,11,24,04,08,1007.48
2011,11,24,04,09,1007.48
2011,11,24,04,10,1007.48
2011,11,24,04,11,1007.52
2011,11,24,04,12,1007.52
2011,11,24,04,13,1007.48
2011,11,24,04,14,1007.48
2011,11,24,04,15,1007.45
2011,11,24,04,16,1007.42
2011,11,24,04,17,1007.42
2011,11,24,04,18,1007.42
2011,11,24,04,19,1007.42
2011,11,24,04,20,1007.38
2011,11,24,04,21,1007.38
2011,11,24,04,22,1007.35
2011,11,24,04,23,1007.35
2011,11,24,04,24,1007.32
2011,11,24,04,25,1007.28
2011,11,24,04,26,1007.31
2011,11,24,04,27,1007.25
2011,11,24,04,28,1007.21
2011,11,24,04,29,1007.25
2011,11,24,04,30,1007.21
2011,11,24,04,31,1007.18
2011,11,24,04,32,1007.11
2011,11,24,04,33,1007.15
2011,11,24,04,34,1007.08
2011,11,24,04,35,1007.11
2011,11,24,04,36,1007.11
2011,11,24,04,37,1007.08
2011,11,24,04,38,1007.11
2011,11,24,04,39,1007.04
2011,11,24,04,40,1007.04
2011,11,24,04,41,1007.01
2011,11,24,04,42,1007.01
2011,11,24,04,43,1007.01
2011,11,24,04,44,1006.98
2011,11,24,04,45,1007.01
2011,11,24,04,46,1007.04
2011,11,24,04,47,1006.98
2011,11,24,04,48,1007.01
2011,11,24,04,49,1006.98
2011,11,24,04,50,1006.98
2011,11,24,04,51,1006.98
2011,11,24,04,52,1006.94
2011,11,24,04,53,1006.94
2011,11,24,04,54,1006.91
2011,11,24,04,55,1006.91
2011,11,24,04,56,1006.94
2011,11,24,04,57,1006.91
2011,11,24,04,58,1006.94
2011,11,24,04,59,1006.94
2011,11,24,05,00,1006.98
2011,11,24,05,01,1006.98
2011,11,24,05,02,1006.91
2011,11,24,05,03,1006.94
2011,11,24,05,04,1006.91
2011,11,24,05,05,1006.88
2011,11,24,05,06,1006.84
2011,11,24,05,07,1006.81
2011,11,24,05,08,1006.74
2011,11,24,05,09,1006.74
2011,11,24,05,10,1006.70
2011,11,24,05,11,1006.60
2011,11,24,05,12,1006.60
2011,11,24,05,13,1006.57
2011,11,24,05,14,1006.47
2011,11,24,05,15,1006.44
2011,11,24,05,16,1006.53
2011,11,24,05,17,1006.44
2011,11,24,05,18,1006.40
2011,11,24,05,19,1006.40
2011,11,24,05,20,1006.33
2011,11,24,05,21,1006.27
2011,11,24,05,22,1006.29
2011,11,24,05,23,1006.20
2011,11,24,05,24,1006.20
2011,11,24,05,25,1006.20
2011,11,24,05,26,1006.20
2011,11,24,05,27,1006.10
2011,11,24,05,28,1006.06
2011,11,24,05,29,1005.98
2011,11,24,05,30,1005.86
2011,11,24,05,31,1005.89
2011,11,24,05,32,1005.83
2011,11,24,05,33,1005.83
2011,11,24,05,34,1005.79
2011,11,24,05,35,1005.86
2011,11,24,05,36,1005.83
2011,11,24,05,37,1005.76
2011,11,24,05,38,1005.76
2011,11,24,05,39,1005.76
2011,11,24,05,40,1005.72
2011,11,24,05,41,1005.76
2011,11,24,05,42,1005.72
2011,11,24,05,43,1005.72
2011,11,24,05,44,1005.72
2011,11,24,05,45,1005.69
2011,11,24,05,46,1005.69
2011,11,24,05,47,1005.62
2011,11,24,05,48,1005.55
2011,11,24,05,49,1005.59
2011,11,24,05,50,1005.52
2011,11,24,05,51,1005.55
2011,11,24,05,52,1005.55
2011,11,24,05,53,1005.49
2011,11,24,05,54,1005.45
2011,11,24,05,55,1005.42
2011,11,24,05,56,1005.39
2011,11,24,05,57,1005.39
2011,11,24,05,58,1005.35
2011,11,24,05,59,1005.35
2011,11,24,06,00,1005.32
2011,11,24,06,01,1005.28
2011,11,24,06,02,1005.25
2011,11,24,06,03,1005.25
2011,11,24,06,04,1005.28
2011,11,24,06,05,1005.28
2011,11,24,06,06,1005.28
2011,11,24,06,07,1005.25
2011,11,24,06,08,1005.25
2011,11,24,06,09,1005.22
2011,11,24,06,10,1005.24
2011,11,24,06,11,1005.15
2011,11,24,06,12,1005.11
2011,11,24,06,13,1005.18
2011,11,24,06,14,1005.11
2011,11,24,06,15,1005.18
2011,11,24,06,16,1005.21
2011,11,24,06,17,1005.08
2011,11,24,06,18,1005.05
2011,11,24,06,19,1005.08
2011,11,24,06,20,1005.08
2011,11,24,06,21,1005.15
2011,11,24,06,22,1005.08
2011,11,24,06,23,1005.11
2011,11,24,06,24,1005.11
2011,11,24,06,25,1005.08
2011,11,24,06,26,1005.08
2011,11,24,06,27,1005.01
2011,11,24,06,28,1005.05
2011,11,24,06,29,1005.05
2011,11,24,06,30,1005.05
2011,11,24,06,31,1005.01
2011,11,24,06,32,1004.95
2011,11,24,06,33,1004.98
2011,11,24,06,34,1004.98
2011,11,24,06,35,1004.98
2011,11,24,06,36,1004.95
2011,11,24,06,37,1004.88
2011,11,24,06,38,1004.84
2011,11,24,06,39,1004.78
2011,11,24,06,40,1004.74
2011,11,24,06,41,1004.78
2011,11,24,06,42,1004.74
2011,11,24,06,43,1004.67
2011,11,24,06,44,1004.61
2011,11,24,06,45,1004.61
2011,11,24,06,46,1004.64
2011,11,24,06,47,1004.64
2011,11,24,06,48,1004.67
2011,11,24,06,49,1004.64
2011,11,24,06,50,1004.64
2011,11,24,06,51,1004.61
2011,11,24,06,52,1004.54
2011,11,24,06,53,1004.54
2011,11,24,06,54,1004.54
2011,11,24,06,55,1004.46
2011,11,24,06,56,1004.37
2011,11,24,06,57,1004.37
2011,11,24,06,58,1004.34
2011,11,24,06,59,1004.37
2011,11,24,07,00,1004.40
2011,11,24,07,01,1004.37
2011,11,24,07,02,1004.40
2011,11,24,07,03,1004.34
2011,11,24,07,04,1004.34
2011,11,24,07,05,1004.40
2011,11,24,07,06,1004.44
2011,11,24,07,07,1004.44
2011,11,24,07,08,1004.44
2011,11,24,07,09,1004.47
2011,11,24,07,10,1004.47
2011,11,24,07,11,1004.47
2011,11,24,07,12,1004.40
2011,11,24,07,13,1004.40
2011,11,24,07,14,1004.37
2011,11,24,07,15,1004.36
2011,11,24,07,16,1004.20
2011,11,24,07,17,1004.22
2011,11,24,07,18,1004.13
2011,11,24,07,19,1004.13
2011,11,24,07,20,1004.06
2011,11,24,07,21,1004.10
2011,11,24,07,22,1004.06
2011,11,24,07,23,1004.00
2011,11,24,07,24,1004.00
2011,11,24,07,25,1003.96
2011,11,24,07,26,1004.00
2011,11,24,07,27,1004.00
2011,11,24,07,28,1003.93
2011,11,24,07,29,1003.90
2011,11,24,07,30,1003.86
2011,11,24,07,31,1003.90
2011,11,24,07,32,1003.83
2011,11,24,07,33,1003.78
2011,11,24,07,34,1003.69
2011,11,24,07,35,1003.73
2011,11,24,07,36,1003.66
2011,11,24,07,37,1003.56
2011,11,24,07,38,1003.52
2011,11,24,07,39,1003.49
2011,11,24,07,40,1003.42
2011,11,24,07,41,1003.46
2011,11,24,07,42,1003.42
2011,11,24,07,43,1003.42
2011,11,24,07,44,1003.46
2011,11,24,07,45,1003.42
2011,11,24,07,46,1003.39
2011,11,24,07,47,1003.39
2011,11,24,07,48,1003.45
2011,11,24,07,49,1003.32
2011,11,24,07,50,1003.39
2011,11,24,07,51,1003.39
2011,11,24,07,52,1003.35
2011,11,24,07,53,1003.32
2011,11,24,07,54,1003.32
2011,11,24,07,55,1003.25
2011,11,24,07,56,1003.35
2011,11,24,07,57,1003.32
2011,11,24,07,58,1003.32
2011,11,24,07,59,1003.32
2011,11,24,08,00,1003.32
2011,11,24,08,01,1003.25
2011,11,24,08,02,1003.28
2011,11,24,08,03,1003.18
2011,11,24,08,04,1003.15
2011,11,24,08,05,1003.25
2011,11,24,08,06,1003.25
2011,11,24,08,07,1003.18
2011,11,24,08,08,1003.22
2011,11,24,08,09,1003.25
2011,11,24,08,10,1003.18
2011,11,24,08,11,1003.25
2011,11,24,08,12,1003.18
2011,11,24,08,13,1003.22
2011,11,24,08,14,1003.15
2011,11,24,08,15,1003.01
2011,11,24,08,16,1002.92
2011,11,24,08,17,1003.11
2011,11,24,08,18,1002.98
2011,11,24,08,19,1003.08
2011,11,24,08,20,1003.15
2011,11,24,08,21,1003.25
2011,11,24,08,22,1003.22
2011,11,24,08,23,1003.12
2011,11,24,08,24,1003.05
2011,11,24,08,25,1003.08
2011,11,24,08,26,1003.05
2011,11,24,08,27,1002.98
2011,11,24,08,28,1003.01
2011,11,24,08,29,1002.94
2011,11,24,08,30,1002.78
2011,11,24,08,31,1002.78
2011,11,24,08,32,1002.85
2011,11,24,08,33,1002.78
2011,11,24,08,34,1002.68
2011,11,24,08,35,1002.68
2011,11,24,08,36,1002.81
2011,11,24,08,37,1002.88
2011,11,24,08,38,1002.85
2011,11,24,08,39,1002.78
2011,11,24,08,40,1002.81
2011,11,24,08,41,1002.85
2011,11,24,08,42,1002.78
2011,11,24,08,43,1002.74
2011,11,24,08,44,1002.78
2011,11,24,08,45,1002.68
2011,11,24,08,46,1002.61
2011,11,24,08,47,1002.68
2011,11,24,08,48,1002.68
2011,11,24,08,49,1002.61
2011,11,24,08,50,1002.51
2011,11,24,08,51,1002.53
2011,11,24,08,52,1002.26
2011,11,24,08,53,1002.00
2011,11,24,08,54,1002.06
2011,11,24,08,55,1001.93
2011,11,24,08,56,1001.96
2011,11,24,08,57,1001.83
2011,11,24,08,58,1001.83
2011,11,24,08,59,1001.76
2011,11,24,09,00,1001.69
2011,11,24,09,01,1001.66
2011,11,24,09,02,1001.66
2011,11,24,09,03,1001.68
2011,11,24,09,04,1001.56
2011,11,24,09,05,1001.52
2011,11,24,09,06,1001.42
2011,11,24,09,07,1001.46
2011,11,24,09,08,1001.36
2011,11,24,09,09,1001.35
2011,11,24,09,10,1001.26
2011,11,24,09,11,1001.36
2011,11,24,09,12,1001.25
2011,11,24,09,13,1001.25
2011,11,24,09,14,1001.25
2011,11,24,09,15,1001.36
2011,11,24,09,16,1001.36
2011,11,24,09,17,1001.36
2011,11,24,09,18,1001.39
2011,11,24,09,19,1001.52
2011,11,24,09,20,1001.52
2011,11,24,09,21,1001.46
2011,11,24,09,22,1001.59
2011,11,24,09,23,1001.59
2011,11,24,09,24,1001.65
2011,11,24,09,25,1001.42
2011,11,24,09,26,1001.36
2011,11,24,09,27,1001.29
2011,11,24,09,28,1001.36
2011,11,24,09,29,1001.29
2011,11,24,09,30,1001.32
2011,11,24,09,31,1001.29
2011,11,24,09,32,1001.29
2011,11,24,09,33,1001.22
2011,11,24,09,34,1001.19
2011,11,24,09,35,1001.25
2011,11,24,09,36,1001.22
2011,11,24,09,37,1001.22
2011,11,24,09,38,1001.29
2011,11,24,09,39,1001.22
2011,11,24,09,40,1001.19
2011,11,24,09,41,1001.12
2011,11,24,09,42,1001.19
2011,11,24,09,43,1001.25
2011,11,24,09,44,1001.12
2011,11,24,09,45,1001.12
2011,11,24,09,46,1001.05
2011,11,24,09,47,1001.05
2011,11,24,09,48,1001.05
2011,11,24,09,49,1001.05
2011,11,24,09,50,1000.92
2011,11,24,09,51,1000.84
2011,11,24,09,52,1000.71
2011,11,24,09,53,1000.71
2011,11,24,09,54,1000.64
2011,11,24,09,55,1000.68
2011,11,24,09,56,1000.68
2011,11,24,09,57,1000.61
2011,11,24,09,58,1000.61
2011,11,24,09,59,1000.64
2011,11,24,10,00,1000.64
2011,11,24,10,01,1000.68
2011,11,24,10,02,1000.71
2011,11,24,10,03,1000.68
2011,11,24,10,04,1000.77
2011,11,24,10,05,1000.62
2011,11,24,10,06,1000.80
2011,11,24,10,07,1000.68
2011,11,24,10,08,1000.81
2011,11,24,10,09,1000.58
2011,11,24,10,10,1000.62
2011,11,24,10,11,1000.82
2011,11,24,10,12,1000.92
2011,11,24,10,13,1000.58
2011,11,24,10,14,1000.65
2011,11,24,10,15,1000.77
2011,11,24,10,16,1000.61
2011,11,24,10,17,1000.71
2011,11,24,10,18,1000.51
2011,11,24,10,19,1000.54
2011,11,24,10,20,1000.58
2011,11,24,10,21,1000.54
2011,11,24,10,22,1000.63
2011,11,24,10,23,1000.48
2011,11,24,10,24,1000.45
2011,11,24,10,25,1000.60
2011,11,24,10,26,1000.41
2011,11,24,10,27,1000.31
2011,11,24,10,28,1000.36
2011,11,24,10,29,1000.21
2011,11,24,10,30,1000.37
2011,11,24,10,31,1000.10
2011,11,24,10,32,1000.20
2011,11,24,10,33,1000.17
2011,11,24,10,34,1000.14
2011,11,24,10,35,1000.14
2011,11,24,10,36,1000.14
2011,11,24,10,37,1000.07
2011,11,24,10,38,1000.10
2011,11,24,10,39,1000.03
2011,11,24,10,40,999.97
2011,11,24,10,41,1000.03
2011,11,24,10,42,999.97
2011,11,24,10,43,1000.03
2011,11,24,10,44,999.93
2011,11,24,10,45,999.88
2011,11,24,10,46,1000.03
2011,11,24,10,47,999.93
2011,11,24,10,48,999.93
2011,11,24,10,49,1000.00
2011,11,24,10,50,1000.03
2011,11,24,10,51,1000.00
2011,11,24,10,52,1000.03
2011,11,24,10,53,999.97
2011,11,24,10,54,999.87
2011,11,24,10,55,999.90
2011,11,24,10,56,999.90
2011,11,24,10,57,999.93
2011,11,24,10,58,999.87
2011,11,24,10,59,999.83
2011,11,24,11,00,999.90
2011,11,24,11,01,999.80
2011,11,24,11,02,999.70
2011,11,24,11,03,999.66
2011,11,24,11,04,999.56
2011,11,24,11,05,999.58
2011,11,24,11,06,999.43
2011,11,24,11,07,999.49
2011,11,24,11,08,999.45
2011,11,24,11,09,999.32
2011,11,24,11,10,999.29
2011,11,24,11,11,999.26
2011,11,24,11,12,999.32
2011,11,24,11,13,999.28
2011,11,24,11,14,999.19
2011,11,24,11,15,999.15
2011,11,24,11,16,999.12
2011,11,24,11,17,999.10
2011,11,24,11,18,999.25
2011,11,24,11,19,999.04
2011,11,24,11,20,998.92
2011,11,24,11,21,999.02
2011,11,24,11,22,998.95
2011,11,24,11,23,998.78
2011,11,24,11,24,998.68
2011,11,24,11,25,998.75
2011,11,24,11,26,998.74
2011,11,24,11,27,998.61
2011,11,24,11,28,998.71
2011,11,24,11,29,998.65
2011,11,24,11,30,998.58
2011,11,24,11,31,998.51
2011,11,24,11,32,998.44
2011,11,24,11,33,998.41
2011,11,24,11,34,998.38
2011,11,24,11,35,998.31
2011,11,24,11,36,998.24
2011,11,24,11,37,998.17
2011,11,24,11,38,998.24
2011,11,24,11,39,997.97
2011,11,24,11,40,998.00
2011,11,24,11,41,998.00
2011,11,24,11,42,997.97
2011,11,24,11,43,997.97
2011,11,24,11,44,997.87
2011,11,24,11,45,997.70
2011,11,24,11,46,997.60
2011,11,24,11,47,997.59
2011,11,24,11,48,997.46
2011,11,24,11,49,997.39
2011,11,24,11,50,997.36
2011,11,24,11,51,997.30
2011,11,24,11,52,997.50
2011,11,24,11,53,997.50
2011,11,24,11,54,997.70
2011,11,24,11,55,997.72
2011,11,24,11,56,997.56
2011,11,24,11,57,997.51
2011,11,24,11,58,997.07
2011,11,24,11,59,997.47
2011,11,24,12,00,997.56
2011,11,24,12,01,997.15
2011,11,24,12,02,996.95
2011,11,24,12,03,997.26
2011,11,24,12,04,997.26
2011,11,24,12,05,997.22
2011,11,24,12,06,997.15
2011,11,24,12,07,996.99
2011,11,24,12,08,997.09
2011,11,24,12,09,996.99
2011,11,24,12,10,996.98
2011,11,24,12,11,996.85
2011,11,24,12,12,996.91
2011,11,24,12,13,996.75
2011,11,24,12,14,996.78
2011,11,24,12,15,996.82
2011,11,24,12,16,996.76
2011,11,24,12,17,996.84
2011,11,24,12,18,996.55
2011,11,24,12,19,996.58
2011,11,24,12,23,996.48
2011,11,24,12,24,996.43
2011,11,24,12,25,996.81
2011,11,24,12,26,996.61
2011,11,24,12,27,996.55
2011,11,24,12,28,996.34
2011,11,24,12,29,996.34
2011,11,24,12,30,996.38
2011,11,24,12,31,996.38
2011,11,24,12,32,996.14
2011,11,24,12,33,996.36
2011,11,24,12,34,996.07
2011,11,24,12,35,995.97
2011,11,24,12,36,996.06
2011,11,24,12,37,995.90
2011,11,24,12,38,996.21
2011,11,24,12,39,996.04
2011,11,24,12,40,995.97
2011,11,24,12,41,996.33
2011,11,24,12,43,996.21
2011,11,24,12,44,996.16
2011,11,24,12,45,996.07
2011,11,24,12,49,995.95
2011,11,24,12,50,996.01
2011,11,24,12,51,996.01
2011,11,24,12,52,995.90
2011,11,24,12,53,995.94
2011,11,24,12,54,995.88
2011,11,24,12,55,996.03
2011,11,24,12,56,995.80
2011,11,24,12,57,995.86
2011,11,24,12,58,995.66
2011,11,24,12,59,995.56
2011,11,24,13,00,995.43
2011,11,24,13,01,995.50
2011,11,24,13,02,995.46
2011,11,24,13,03,995.36
2011,11,24,13,04,995.43
2011,11,24,13,05,995.41
2011,11,24,13,06,995.59
2011,11,24,13,07,995.35
2011,11,24,13,08,995.17
2011,11,24,13,09,995.43
2011,11,24,13,10,995.40
2011,11,24,13,11,995.43
2011,11,24,13,12,995.39
2011,11,24,13,16,994.99
2011,11,24,13,17,995.29
2011,11,24,13,18,995.02
2011,11,24,13,19,995.02
2011,11,24,13,20,995.19
2011,11,24,13,21,995.15
2011,11,24,13,22,994.96
2011,11,24,13,23,994.86
2011,11,24,13,24,994.99
2011,11,24,13,25,994.96
2011,11,24,13,26,995.18
2011,11,24,13,27,995.00
2011,11,24,13,28,995.15
2011,11,24,13,29,995.02
2011,11,24,13,30,995.02
2011,11,24,13,31,994.90
2011,11,24,13,32,995.03
2011,11,24,13,33,995.16
2011,11,24,13,34,995.16
2011,11,24,13,35,995.19
2011,11,24,13,36,995.17
2011,11,24,13,37,995.36
2011,11,24,13,38,995.29
2011,11,24,13,39,995.30
2011,11,24,13,40,995.43
2011,11,24,13,41,995.50
2011,11,24,13,42,995.56
2011,11,24,13,43,995.50
2011,11,24,13,44,995.43
2011,11,24,13,45,995.40
2011,11,24,13,46,995.42
2011,11,24,13,47,995.29
2011,11,24,13,48,995.23
2011,11,24,13,49,995.52
2011,11,24,13,50,995.36
2011,11,24,13,51,995.29
2011,11,24,13,52,995.40
2011,11,24,13,53,995.43
2011,11,24,13,54,995.36
2011,11,24,13,55,995.43
2011,11,24,13,56,995.43
2011,11,24,13,57,995.56
2011,11,24,13,58,995.62
2011,11,24,13,59,995.44
2011,11,24,14,00,995.56
2011,11,24,14,01,995.60
2011,11,24,14,02,995.56
2011,11,24,14,03,995.56
2011,11,24,14,04,995.63
2011,11,24,14,05,995.80
2011,11,24,14,06,995.73
2011,11,24,14,07,995.73
2011,11,24,14,08,995.73
2011,11,24,14,09,995.53
2011,11,24,14,10,995.60
2011,11,24,14,11,995.70
2011,11,24,14,12,995.77
2011,11,24,14,13,995.70
2011,11,24,14,14,995.76
2011,11,24,14,15,995.64
2011,11,24,14,16,995.80
2011,11,24,14,17,995.80
2011,11,24,14,18,995.87
2011,11,24,14,19,996.03
2011,11,24,14,20,995.87
2011,11,24,14,21,995.93
2011,11,24,14,22,995.84
2011,11,24,14,23,995.80
2011,11,24,14,24,995.87
2011,11,24,14,25,995.80
2011,11,24,14,26,995.73
2011,11,24,14,27,995.87
2011,11,24,14,28,995.81
2011,11,24,14,29,995.94
2011,11,24,14,30,995.73
2011,11,24,14,31,995.77
2011,11,24,14,32,995.80
2011,11,24,14,33,995.89
2011,11,24,14,34,995.67
2011,11,24,14,35,995.90
2011,11,24,14,36,995.70
2011,11,24,14,37,995.70
2011,11,24,14,38,995.61
2011,11,24,14,39,995.79
2011,11,24,14,40,995.70
2011,11,24,14,41,995.77
2011,11,24,14,42,995.77
2011,11,24,14,43,995.77
2011,11,24,14,44,995.70
2011,11,24,14,45,995.63
2011,11,24,14,46,995.67
2011,11,24,14,47,995.67
2011,11,24,14,48,995.64
2011,11,24,14,49,995.73
2011,11,24,14,50,995.77
2011,11,24,14,51,995.77
2011,11,24,14,52,995.73
2011,11,24,14,53,995.74
2011,11,24,14,54,995.90
2011,11,24,14,55,995.87
2011,11,24,14,56,995.90
2011,11,24,14,57,995.84
2011,11,24,14,58,995.73
2011,11,24,14,59,995.70
2011,11,24,15,00,995.77
2011,11,24,15,01,995.79
2011,11,24,15,02,995.67
2011,11,24,15,03,995.67
2011,11,24,15,04,995.67
2011,11,24,15,05,995.64
2011,11,24,15,06,995.73
2011,11,24,15,07,995.70
2011,11,24,15,08,995.70
2011,11,24,15,09,995.87
2011,11,24,15,10,995.73
2011,11,24,15,11,995.70
2011,11,24,15,12,995.80
2011,11,24,15,13,995.80
2011,11,24,15,14,995.70
2011,11,24,15,15,995.70
2011,11,24,15,16,995.67
2011,11,24,15,17,995.56
2011,11,24,15,18,995.53
2011,11,24,15,19,995.53
2011,11,24,15,20,995.43
2011,11,24,15,21,995.40
2011,11,24,15,22,995.36
2011,11,24,15,23,995.40
2011,11,24,15,24,995.40
2011,11,24,15,25,995.43
2011,11,24,15,26,995.46
2011,11,24,15,27,995.56
2011,11,24,15,28,995.61
2011,11,24,15,29,995.77
2011,11,24,15,30,995.67
2011,11,24,15,31,995.70
2011,11,24,15,32,995.74
2011,11,24,15,33,995.90
2011,11,24,15,34,995.90
2011,11,24,15,35,996.04
2011,11,24,15,36,996.11
2011,11,24,15,37,996.22
2011,11,24,15,38,996.32
2011,11,24,15,39,996.41
2011,11,24,15,40,996.29
2011,11,24,15,41,996.42
2011,11,24,15,42,996.55
2011,11,24,15,43,996.51
2011,11,24,15,44,996.55
2011,11,24,15,45,996.51
2011,11,24,15,46,996.51
2011,11,24,15,47,996.48
2011,11,24,15,48,996.51
2011,11,24,15,49,996.48
2011,11,24,15,50,996.51
2011,11,24,15,51,996.51
2011,11,24,15,52,996.51
2011,11,24,15,53,996.41
2011,11,24,15,54,996.38
2011,11,24,15,55,996.41
2011,11,24,15,56,996.45
2011,11,24,15,57,996.51
2011,11,24,15,58,996.59
2011,11,24,15,59,996.68
2011,11,24,16,00,996.61
2011,11,24,16,01,996.65
2011,11,24,16,02,996.61
2011,11,24,16,03,996.65
2011,11,24,16,04,996.61
2011,11,24,16,05,996.61
2011,11,24,16,06,996.61
2011,11,24,16,07,996.61
2011,11,24,16,08,996.68
2011,11,24,16,09,996.61
2011,11,24,16,10,996.68
2011,11,24,16,11,996.68
2011,11,24,16,12,996.58
2011,11,24,16,13,996.65
2011,11,24,16,14,996.68
2011,11,24,16,15,996.72
2011,11,24,16,16,996.65
2011,11,24,16,17,996.68
2011,11,24,16,18,996.72
2011,11,24,16,19,996.68